Theta_e
318 320 322 324 324 326 326 325 330 330 326 326 325 324 319 317 318 318 317 316 317 318 327 334 334 334 335 334 332 331 329 329 329 334 338 333 332 334 336 338 338 339 339 339 331 329 332 332 328 320 322 331 333 334 335 335 335 335 333 333 332 332 332 332 332 332 332 331 329 327 325 324 323 323 322 320 318 321 326 331 332 334 334 334 334 335 333 325 320 319 317 315 314 311 308 308 309
312 318 320 322 324 326 324 326 336 337 331 326 322 319 316 314 314 315 316 315 315 317 325 331 332 332 332 331 330 330 327 324 323 327 331 330 334 335 336 338 337 338 339 339 333 330 332 332 331 327 322 324 329 332 333 334 335 336 335 334 334 333 333 333 333 332 332 331 328 325 324 323 322 322 321 319 317 320 326 330 332 332 334 334 333 333 329 324 322 320 318 316 314 313 310 308 308
309 315 319 321 325 325 326 329 334 338 335 327 321 315 313 313 313 313 315 315 314 318 326 329 330 329 329 329 329 329 325 322 323 325 328 330 333 334 336 336 336 338 339 339 334 330 332 332 332 330 327 323 324 327 328 330 333 335 335 335 334 334 334 333 333 333 332 332 329 326 325 323 322 320 319 319 317 318 324 328 330 331 332 333 332 331 328 324 322 320 319 317 315 314 311 308 308
308 314 319 322 324 325 333 333 331 333 328 324 322 314 311 312 312 312 314 314 315 320 326 328 327 326 327 325 325 324 321 322 322 323 326 327 329 331 335 335 335 337 339 339 335 332 332 333 332 330 329 327 325 324 325 326 329 333 334 335 336 335 335 335 334 333 332 332 329 326 323 321 319 317 316 316 313 315 322 325 329 330 329 331 331 329 327 324 322 321 320 319 317 315 313 309 307
309 315 320 324 326 326 329 324 321 323 318 318 320 313 311 311 311 312 313 315 315 317 322 326 327 325 324 320 320 318 316 320 322 322 324 326 328 330 334 335 336 337 338 339 335 333 333 334 332 331 330 329 326 323 323 323 324 328 332 333 335 335 335 335 334 332 332 331 329 326 322 319 316 314 313 313 311 312 318 323 327 328 328 329 330 329 326 322 322 322 321 321 320 317 316 312 309
310 317 321 323 323 321 320 316 313 314 312 313 314 311 311 310 310 312 314 315 315 315 317 321 324 323 319 316 316 313 313 317 319 321 322 326 329 330 333 335 337 337 337 337 335 333 333 334 333 331 331 331 328 324 322 319 318 322 327 329 331 334 336 335 334 333 332 331 329 326 321 317 314 315 315 313 312 311 316 321 323 326 327 328 328 328 323 321 323 322 322 322 321 320 319 316 311
313 319 323 323 319 315 315 314 312 312 311 310 310 310 310 309 310 313 314 314 315 315 315 316 320 323 320 317 316 313 312 314 316 320 322 324 327 329 332 335 337 338 337 337 336 334 333 334 334 332 331 332 330 328 325 321 318 317 319 321 323 327 331 333 333 334 334 332 329 326 322 319 315 317 318 315 314 313 319 322 322 324 325 326 326 323 322 323 324 323 324 324 323 322 321 319 315
316 319 320 320 318 316 314 312 312 312 310 308 309 309 309 309 310 313 313 314 314 313 313 315 318 321 321 320 317 314 312 312 315 318 322 324 326 330 331 334 337 337 337 337 338 336 335 334 334 333 332 333 333 332 329 327 324 320 319 318 318 319 321 325 327 332 334 333 330 327 326 322 317 319 320 318 320 316 319 324 322 323 323 322 320 320 323 325 324 325 326 325 324 323 321 320 318
318 318 316 318 317 315 313 312 311 310 309 308 307 308 308 308 310 312 313 312 313 311 311 313 317 319 318 319 316 314 313 312 314 317 322 325 326 329 330 332 335 337 337 337 337 337 337 335 335 334 333 333 335 334 332 331 330 328 327 325 323 319 317 315 316 322 329 332 331 329 328 325 318 319 322 321 326 322 318 324 323 322 321 320 320 323 326 325 325 327 326 324 323 323 321 320 318
317 316 315 317 316 313 312 312 311 309 308 307 307 307 307 307 309 311 312 312 311 310 310 312 314 316 317 316 315 315 313 311 313 318 321 325 325 327 329 330 332 335 336 337 337 337 337 335 334 334 334 334 334 334 333 333 333 333 332 330 326 321 316 314 313 313 319 326 330 331 329 327 320 318 323 323 328 328 322 323 325 323 321 322 324 326 326 325 326 326 324 322 322 323 322 320 319
316 316 315 318 317 314 312 311 310 308 307 306 306 307 307 307 308 309 311 311 310 310 310 312 312 313 315 313 314 314 311 311 313 315 317 321 323 324 327 328 330 333 336 336 337 337 336 335 335 335 334 334 333 334 334 334 334 333 332 327 322 317 314 312 312 312 314 318 324 328 327 326 320 317 323 325 328 331 327 326 327 323 322 326 327 327 326 326 324 323 322 321 322 323 322 321 319
316 315 315 316 315 313 310 310 309 308 307 307 307 307 307 306 307 308 309 308 309 310 308 309 310 312 313 310 312 312 310 311 311 310 312 316 321 323 325 327 329 331 333 334 335 336 336 336 335 335 335 334 334 334 334 334 333 331 330 324 317 313 312 312 310 315 318 318 319 321 323 324 320 318 323 327 328 331 331 329 328 325 326 329 328 327 326 324 323 322 321 322 323 323 322 321 320
315 314 315 311 311 311 310 310 309 309 309 307 306 306 307 306 306 307 308 307 307 309 308 308 309 312 312 309 310 311 310 310 308 309 309 312 317 321 324 326 327 329 330 330 331 334 336 337 335 334 334 335 335 335 334 334 332 330 327 323 318 314 312 312 312 318 322 322 321 318 318 320 321 320 323 327 328 330 331 331 330 327 329 329 327 327 325 323 322 321 321 324 324 323 323 322 320
313 312 314 311 310 311 310 311 309 311 310 306 306 306 306 305 305 307 308 307 306 307 308 307 308 312 311 308 309 308 307 307 307 308 308 309 314 320 323 325 326 327 329 329 330 334 336 336 335 333 334 335 335 335 334 333 331 329 327 324 321 317 315 313 313 319 321 321 322 318 313 316 322 322 323 327 328 329 331 331 331 330 330 329 327 327 326 323 321 321 324 326 325 325 324 321 317
312 310 313 315 313 310 310 310 309 311 309 305 306 306 305 305 306 307 307 307 306 305 306 306 306 310 309 307 307 306 305 305 306 307 308 308 311 318 323 324 325 327 329 329 330 333 335 334 333 334 334 334 334 335 334 332 330 329 328 326 323 320 319 318 316 318 319 319 320 317 312 316 324 325 325 327 329 330 330 332 332 331 331 329 328 329 326 323 322 324 326 326 326 326 323 319 313
312 310 313 316 312 309 309 308 308 311 308 305 306 306 305 305 305 306 305 306 306 304 305 305 305 306 306 305 305 304 304 304 305 306 307 309 310 316 321 323 325 326 327 327 329 329 331 332 332 334 334 333 335 335 333 331 330 330 329 327 325 321 321 321 320 320 319 319 320 318 317 321 326 327 327 328 329 331 331 332 332 332 332 329 329 330 326 323 323 326 327 327 327 325 321 316 310
310 311 312 312 309 309 309 307 309 309 307 305 305 305 306 305 305 305 304 304 304 304 304 304 304 305 305 305 305 304 304 304 305 306 307 309 309 312 317 322 324 326 326 326 327 326 326 330 331 333 334 335 335 334 332 331 331 331 329 327 326 324 323 322 321 322 320 319 320 321 322 325 326 327 327 329 329 331 331 332 333 333 332 329 330 329 325 324 325 327 328 328 327 324 319 314 310
311 313 310 309 309 308 307 306 307 306 306 306 305 305 305 305 305 304 304 304 304 304 303 304 304 304 305 305 304 304 304 304 305 305 306 307 308 309 313 319 322 323 325 325 325 324 325 326 329 332 334 335 333 333 333 332 332 331 328 326 326 325 325 323 322 323 321 319 321 323 326 326 326 327 327 329 329 330 331 332 333 333 331 330 331 328 325 325 326 328 328 328 326 323 318 314 311
309 311 310 308 308 306 305 305 305 305 306 305 305 305 305 304 304 304 304 304 303 304 304 303 304 304 304 304 304 304 304 304 305 305 306 306 308 309 311 315 318 320 321 323 324 324 325 325 327 329 331 333 333 333 334 333 333 332 329 325 325 326 326 323 322 322 320 319 322 325 326 326 326 327 328 329 330 330 331 333 332 332 331 331 330 326 325 326 326 327 328 327 325 322 318 315 312
304 308 312 308 305 305 304 305 305 305 305 305 305 305 304 304 304 304 304 304 304 303 303 303 304 304 304 304 304 304 304 304 304 304 306 306 307 308 310 312 315 317 318 319 321 322 324 325 326 326 327 331 333 333 334 334 334 333 328 326 327 328 327 324 322 321 318 319 323 325 326 326 327 327 328 329 330 331 332 332 332 331 331 331 329 326 325 326 327 327 328 327 325 322 319 316 314
304 307 311 306 304 306 305 305 305 305 305 305 305 305 305 304 304 304 304 306 306 303 303 303 304 304 304 304 304 304 304 303 303 303 305 306 307 308 310 311 313 315 316 316 318 320 322 324 326 326 327 329 331 332 333 334 334 333 328 326 329 329 329 325 321 320 318 320 324 326 327 326 327 328 329 330 331 332 332 331 331 330 330 329 328 327 326 326 328 329 328 327 325 324 321 319 318
304 305 307 304 304 306 305 304 305 304 304 304 305 305 305 304 304 304 304 306 305 303 303 303 304 304 304 304 304 304 304 303 302 303 305 305 306 307 309 310 312 313 315 316 317 319 321 323 325 326 328 329 330 330 331 333 334 332 328 327 328 329 330 326 321 320 318 321 326 327 327 327 328 329 329 330 331 332 331 329 328 328 327 326 327 327 327 327 329 329 327 327 326 325 322 321 321
304 305 304 304 305 305 305 304 304 304 304 304 304 305 305 304 304 304 304 304 304 303 303 304 304 304 304 304 304 304 303 302 301 302 304 305 305 307 308 310 312 313 315 316 317 318 320 322 323 324 327 328 329 330 329 330 332 333 329 326 328 328 328 326 320 320 320 323 328 329 328 328 329 329 330 330 330 332 331 329 328 327 327 327 327 327 328 329 329 327 327 327 327 325 322 322 323
305 306 304 304 305 304 304 304 305 305 304 304 304 305 305 305 304 304 304 304 303 303 304 304 304 304 304 304 303 302 302 301 300 300 302 304 305 306 307 309 311 313 314 315 317 318 319 320 321 323 326 326 327 328 328 329 331 333 329 327 328 327 328 327 322 320 322 326 328 329 329 329 329 329 330 329 330 331 331 330 328 328 329 329 329 328 330 330 328 326 326 326 326 324 322 323 323
305 306 304 305 305 305 304 304 305 305 304 304 305 305 305 305 305 304 304 304 303 303 304 304 304 304 303 302 301 301 301 301 300 300 301 302 304 306 307 309 310 312 314 315 316 317 317 318 320 322 324 324 325 325 326 329 331 331 330 329 328 327 328 327 324 322 324 327 329 330 330 330 330 330 330 329 330 331 331 330 329 329 329 329 330 330 330 329 326 326 326 325 324 323 323 324 324
305 305 305 304 304 304 304 304 305 305 305 304 305 304 304 305 305 305 304 303 303 303 304 303 303 303 301 301 300 300 301 300 300 299 299 300 304 307 308 309 310 312 313 314 315 316 316 317 319 321 323 323 324 325 326 328 329 329 329 329 327 328 328 327 325 324 325 328 330 330 330 330 331 330 330 329 329 330 330 330 330 329 327 327 326 326 328 328 326 326 325 325 324 323 324 324 324
304 304 304 305 305 305 304 305 305 305 305 304 305 304 304 305 305 306 305 303 304 303 303 303 302 301 300 300 300 301 300 299 298 297 297 300 303 306 307 308 309 310 312 313 314 315 316 316 318 319 321 322 323 325 326 326 326 326 327 329 328 328 329 328 326 325 325 328 330 330 330 330 331 330 330 329 329 330 330 329 329 328 324 322 322 324 327 327 326 326 325 324 324 324 324 324 324
305 304 305 305 305 305 305 305 305 305 304 304 304 303 304 304 305 307 305 304 304 303 303 302 302 301 301 301 301 302 301 299 297 295 296 297 298 301 304 307 308 310 311 313 314 315 315 315 316 318 318 320 322 323 324 325 325 325 327 329 329 329 329 329 329 328 327 328 329 330 330 330 330 330 329 329 329 328 327 325 324 323 320 319 323 325 327 327 326 325 325 325 324 324 324 324 323
304 305 307 305 306 307 305 305 305 304 304 305 304 304 307 307 306 306 305 304 304 303 303 302 302 301 301 301 302 302 300 298 296 294 295 294 293 296 301 304 307 308 309 311 313 314 315 314 315 316 316 318 321 322 323 325 325 325 327 328 328 328 329 329 330 329 328 328 329 330 330 330 330 328 327 325 323 323 323 323 322 322 322 321 323 326 327 326 326 326 326 325 325 325 324 324 323
305 305 307 308 310 309 305 304 305 305 305 305 303 306 311 309 306 305 305 304 303 303 302 302 302 302 302 302 301 300 298 297 296 294 294 293 292 293 297 301 305 307 308 310 313 314 315 314 313 315 315 316 318 320 322 323 324 324 325 327 328 326 328 329 328 328 329 329 328 329 330 330 328 324 321 321 322 323 324 324 325 325 325 324 324 325 325 325 326 326 326 326 326 325 324 324 324
305 306 308 309 311 310 306 304 305 305 305 304 304 307 311 308 305 305 305 303 303 303 302 302 302 301 301 301 300 299 297 296 296 294 293 293 292 292 294 298 303 307 308 310 313 314 314 313 313 314 314 315 316 317 319 321 323 324 324 325 326 326 327 328 326 327 328 329 328 328 329 329 325 321 320 323 325 326 326 326 326 326 326 326 326 326 325 325 326 326 326 327 326 326 325 325 325
308 308 312 311 309 309 307 304 304 304 304 303 305 309 311 308 305 305 304 304 303 302 302 302 302 301 301 300 299 298 297 296 296 295 293 293 292 291 293 296 301 306 309 310 312 314 313 311 312 314 315 316 316 315 316 319 321 323 323 324 325 327 328 327 325 326 328 329 328 328 329 327 324 320 321 324 324 324 324 324 324 324 324 325 325 326 326 326 326 326 327 327 327 326 326 326 326
309 307 311 312 309 307 307 305 303 303 303 303 303 307 310 307 305 304 303 303 303 302 302 302 302 301 300 300 298 298 298 296 295 294 293 293 293 292 292 294 298 304 309 309 310 312 311 310 311 314 315 315 316 315 315 317 319 320 321 322 324 326 328 327 327 327 328 328 328 328 327 325 322 320 321 322 321 320 321 321 322 322 322 322 324 325 325 325 325 326 326 326 326 326 326 326 326
310 308 309 310 307 306 306 305 303 302 302 303 304 306 308 306 303 303 303 303 303 302 302 301 302 301 300 299 298 298 298 295 293 293 293 293 293 293 292 293 296 301 307 308 307 309 310 309 310 313 314 315 316 316 316 316 318 319 319 320 322 324 325 325 326 326 326 326 326 326 324 322 320 321 321 321 319 319 320 320 320 321 320 320 321 323 325 324 324 325 325 325 326 326 326 326 325
309 308 309 309 306 305 305 304 303 302 303 305 306 306 306 304 302 303 303 303 303 303 302 302 301 301 300 300 299 298 297 294 293 293 293 292 293 294 293 293 295 298 303 306 305 307 309 309 311 313 314 315 315 315 316 316 316 317 318 319 320 321 322 323 323 324 324 324 324 324 322 320 319 320 321 320 320 320 320 320 320 320 320 320 320 322 324 324 324 324 324 324 325 324 325 324 324
307 306 307 308 307 305 303 302 303 302 304 306 306 305 305 305 304 303 303 303 303 303 302 302 301 301 301 300 299 298 296 294 293 293 293 292 292 294 294 294 295 296 298 302 305 307 307 308 312 313 313 314 315 315 315 316 315 316 317 318 319 320 321 321 322 323 323 323 323 322 322 322 321 321 322 321 320 320 320 320 320 320 319 320 320 321 323 322 322 323 323 323 323 323 323 322 322
303 304 306 307 305 303 301 301 302 302 305 308 306 305 304 306 305 302 302 303 302 302 302 302 302 301 301 300 299 298 296 294 293 293 294 293 292 293 293 293 294 296 296 297 301 304 305 308 311 312 311 313 314 314 315 315 315 316 317 318 319 319 319 320 321 321 321 321 322 322 322 323 323 322 322 321 320 320 320 319 319 320 320 320 320 320 321 321 321 322 322 322 322 321 321 321 320
303 305 308 308 304 301 300 301 302 301 305 310 308 305 306 306 304 301 302 303 302 303 303 302 302 301 301 300 299 298 297 296 294 294 295 294 293 293 292 292 292 294 295 294 295 296 299 305 309 310 311 312 312 312 313 314 315 315 316 317 318 318 318 319 320 320 321 320 321 321 321 322 322 322 322 321 321 320 320 320 320 320 320 320 320 320 320 320 320 320 320 320 320 320 320 319 319
306 307 309 307 302 302 304 303 303 301 304 311 307 304 308 308 303 301 301 303 303 303 303 303 303 302 301 300 298 297 297 296 294 294 294 293 293 292 292 292 291 292 294 294 293 293 294 297 301 304 307 308 309 309 310 311 313 314 315 316 317 317 318 318 319 319 319 319 319 320 321 321 321 322 321 321 320 320 320 320 320 320 319 319 319 319 319 319 319 319 319 319 319 319 318 317 317
306 307 307 305 302 303 305 304 302 301 303 306 304 306 310 309 306 304 302 302 303 302 303 302 303 302 301 300 299 297 296 295 294 294 293 293 293 292 292 292 292 291 293 294 294 294 293 293 295 297 300 303 305 305 307 308 309 311 313 314 314 316 316 317 317 318 318 318 318 318 319 319 319 320 320 319 319 319 319 319 319 319 318 318 318 318 318 318 318 318 318 318 318 317 317 316 316
305 306 305 303 303 302 302 303 302 303 304 302 303 310 315 311 309 307 303 303 303 303 303 303 303 302 301 300 299 298 297 296 295 294 294 293 293 293 292 292 292 292 292 292 293 294 294 293 293 294 295 297 299 301 303 304 306 307 309 310 311 313 314 314 315 315 315 316 316 316 316 316 317 317 317 317 317 317 318 318 317 317 317 317 317 316 317 317 316 316 316 316 316 315 315 315 314
307 307 304 302 303 303 302 303 304 309 310 303 302 311 318 314 310 308 306 305 304 303 302 303 303 303 302 301 300 299 298 297 295 294 294 294 293 293 293 292 292 292 292 292 292 292 293 293 293 293 293 294 295 296 298 300 302 303 304 306 307 308 310 310 310 311 311 312 312 312 312 312 312 313 313 314 314 314 314 315 315 315 315 315 315 315 315 315 314 313 312 311 312 311 310 311 310
306 304 303 303 302 301 300 302 307 311 310 304 303 308 312 313 312 308 307 307 307 304 301 302 303 303 302 302 301 299 299 298 297 295 294 294 294 293 293 293 293 293 292 293 292 292 292 292 292 292 292 293 293 293 294 296 297 298 300 301 302 303 304 304 304 304 304 305 305 305 306 306 306 307 307 307 308 308 309 309 310 310 311 311 310 311 311 310 309 307 306 306 307 305 304 305 306
305 304 303 302 300 299 299 303 307 306 306 306 306 305 305 310 314 309 305 306 309 307 304 302 303 304 303 302 301 300 299 299 298 296 294 295 295 294 293 293 293 293 293 293 293 293 292 292 292 292 292 293 292 293 293 293 294 294 295 296 297 297 297 298 298 298 298 298 298 299 299 299 299 299 300 300 301 301 302 302 303 303 303 303 302 303 302 301 300 299 298 298 299 298 298 298 299
304 301 299 299 299 299 300 305 307 304 307 312 309 304 305 311 313 308 305 307 308 308 306 303 303 304 304 303 302 301 300 300 298 296 295 295 296 295 294 294 293 293 293 293 293 293 293 292 292 292 293 293 293 292 292 292 292 293 293 293 294 294 294 294 294 294 294 294 294 295 295 295 295 295 295 295 296 296 296 296 297 297 296 296 296 296 295 295 295 294 294 294 294 294 294 294 294
301 298 299 301 301 302 303 304 306 306 310 312 307 304 305 312 313 307 306 307 306 305 305 303 303 304 304 303 302 302 301 300 299 297 296 296 296 296 296 295 294 294 293 293 293 293 293 293 293 293 293 293 293 292 292 292 292 292 292 292 293 293 293 293 293 293 293 293 293 293 293 293 293 293 293 293 293 293 293 293 293 294 293 293 293 293 293 293 293 293 293 293 293 293 293 293 293
299 300 303 304 303 304 305 303 303 309 313 310 306 303 302 309 313 308 304 304 303 304 305 304 303 304 304 303 302 302 302 301 300 298 297 297 297 297 297 296 295 295 294 294 294 294 294 294 293 293 293 292 292 292 292 292 292 292 292 292 292 292 292 292 292 292 292 292 292 292 292 292 292 292 292 292 292 292 292 292 292 293 293 292 293 292 292 292 293 293 293 293 293 293 293 293 293
299 303 304 306 309 307 308 308 307 312 313 308 306 303 300 306 311 307 303 303 301 301 303 304 304 303 303 303 303 302 301 301 300 299 298 298 297 297 297 297 296 295 295 295 295 294 294 294 294 293 293 292 292 292 292 292 292 292 292 292 292 292 292 291 291 292 292 291 292 292 292 292 292 292 292 292 292 292 291 292 292 292 292 292 292 292 292 292 292 292 292 292 292 292 292 292 293
302 304 305 311 315 311 312 314 312 313 311 307 304 302 302 306 308 305 304 304 301 299 300 302 303 303 302 302 302 302 301 300 300 299 299 299 298 297 297 297 297 296 296 296 295 295 295 294 294 294 293 293 292 292 292 292 292 292 292 291 291 291 291 291 291 291 291 291 291 291 291 291 291 291 291 291 291 291 291 291 291 291 291 291 291 292 292 292 292 292 292 292 292 292 292 292 292
303 303 305 312 313 311 314 312 309 311 311 305 301 301 306 308 306 305 304 302 301 299 299 301 302 302 302 302 301 301 301 300 300 299 299 299 299 299 298 298 297 297 296 296 296 296 295 295 295 294 294 293 293 292 292 292 292 291 292 291 291 291 291 291 291 291 291 291 291 291 291 291 291 291 291 291 291 291 291 291 291 291 291 291 291 291 291 291 291 291 291 292 292 292 292 292 292
302 301 304 309 308 309 312 310 309 311 309 305 303 304 308 308 305 304 301 298 300 300 300 300 301 301 301 301 300 300 300 300 300 300 299 299 299 299 299 299 299 298 297 296 295 296 296 296 295 295 295 294 293 293 292 292 292 291 291 291 291 291 291 291 291 291 291 291 290 290 290 290 290 290 290 290 291 290 290 290 290 291 291 291 291 291 291 291 291 291 291 291 291 291 291 291 292
303 302 304 306 305 306 308 306 305 305 304 307 308 307 306 305 303 300 298 298 299 300 301 300 300 300 300 300 300 300 300 300 300 300 300 300 300 299 300 300 300 299 299 298 296 296 295 296 296 295 295 295 294 293 293 292 292 292 291 291 291 291 291 291 291 291 291 290 290 290 290 290 290 290 290 290 290 290 290 290 290 290 290 290 291 291 291 291 291 291 291 291 291 291 291 291 292
305 304 303 300 299 303 306 304 303 301 304 309 307 306 307 305 303 300 300 301 301 300 300 301 302 301 300 300 300 300 300 300 300 300 300 300 300 300 300 300 300 300 299 299 298 297 296 295 295 295 295 295 295 294 294 293 293 292 292 292 292 291 291 291 291 291 291 291 291 290 290 290 290 290 290 290 290 290 290 290 290 290 290 290 290 290 290 290 290 291 291 291 291 291 291 291 291
305 306 300 296 299 303 304 304 305 305 309 309 305 306 306 306 308 307 304 303 303 301 300 301 301 301 301 300 300 300 300 300 300 300 299 299 299 299 300 300 300 300 300 299 299 298 297 297 296 295 295 295 295 295 294 294 293 293 293 293 292 292 292 292 291 291 291 291 291 291 290 290 290 290 290 290 290 289 289 290 290 290 290 290 290 290 290 290 290 290 290 291 291 291 291 291 292
299 299 297 299 304 306 304 305 307 307 308 307 305 306 305 306 310 309 304 302 304 303 301 300 300 300 300 300 300 300 300 300 300 299 299 298 298 298 298 299 299 299 299 299 299 299 298 298 297 296 295 295 295 295 295 295 294 294 294 293 293 293 293 292 292 292 292 291 291 291 291 291 290 290 290 290 290 289 289 289 289 289 289 289 290 290 290 290 290 290 290 291 291 291 291 291 291
299 300 300 302 305 304 303 304 305 307 307 306 305 306 308 310 309 306 302 302 304 305 301 299 299 300 300 300 300 299 299 299 299 299 299 298 298 298 298 298 298 298 298 298 298 298 298 298 298 297 297 296 295 295 295 295 294 294 294 294 294 294 293 293 293 293 293 292 292 291 291 291 291 290 290 290 290 290 289 289 289 289 289 289 289 289 289 290 290 290 290 290 291 291 291 291 291
303 305 304 303 303 302 302 303 302 304 306 305 304 305 307 308 306 304 303 301 302 302 299 298 300 300 300 300 300 300 299 299 299 299 298 298 298 299 298 299 299 298 299 298 298 298 297 297 297 297 297 297 296 296 295 295 294 294 294 294 294 294 294 294 294 294 294 294 293 293 292 292 291 291 290 290 290 290 289 289 289 289 289 289 289 289 289 289 289 290 290 291 291 291 291 291 291
300 303 302 303 304 304 305 305 303 302 303 303 302 303 305 304 303 302 300 299 299 299 298 298 300 300 300 300 300 300 299 299 299 299 298 298 299 299 299 299 299 299 299 299 298 298 297 297 297 297 297 297 297 297 296 295 295 294 294 294 294 294 294 294 294 294 294 294 294 293 293 293 292 291 291 291 290 290 290 290 290 289 289 289 289 289 289 289 289 289 290 291 291 291 291 291 291
Wind_Speed
11 10 8 6 4 2 3 3 2 3 4 3 3 2 4 6 5 5 10 12 5 11 15 17 23 18 13 14 17 21 19 12 8 6 2 12 12 5 11 4 5 5 5 11 12 11 9 7 6 7 11 11 10 8 8 9 10 11 12 12 12 12 10 9 10 12 13 12 12 11 11 10 8 5 3 3 4 5 5 5 7 8 7 9 8 8 9 9 9 11 12 12 13 14 14 12 10
10 10 8 5 2 1 1 3 3 2 5 3 3 2 5 7 7 8 8 8 8 12 8 12 20 21 16 18 17 17 17 14 16 13 3 15 8 0 8 5 8 6 3 10 14 13 10 8 7 6 8 10 11 10 9 8 8 12 13 13 12 12 12 11 12 12 12 11 10 10 9 8 6 4 3 3 4 6 7 6 6 7 9 10 8 7 9 8 8 10 10 11 12 13 13 12 10
8 9 7 5 3 1 1 3 4 2 5 3 1 2 5 7 8 8 5 8 16 14 7 6 11 12 7 11 13 9 9 13 22 22 12 17 11 8 12 7 8 8 6 10 16 14 12 9 9 7 7 8 10 11 10 8 7 9 10 10 10 12 13 12 13 12 12 11 9 8 7 6 5 4 3 4 4 7 8 8 6 6 8 9 7 7 7 7 7 8 10 11 12 12 12 13 11
7 8 7 5 3 2 3 4 3 3 4 2 1 4 6 7 8 9 8 11 22 22 13 8 8 13 12 11 9 5 12 12 20 27 19 22 20 20 17 10 9 10 8 11 15 14 15 11 10 8 7 7 7 8 7 8 6 5 5 5 7 11 13 13 13 13 12 11 10 8 6 5 5 4 4 5 6 7 8 9 8 7 6 7 6 6 6 5 6 7 9 10 11 11 12 13 12
8 8 7 4 2 2 5 4 3 4 2 1 1 4 6 6 7 10 11 11 23 28 21 12 6 9 16 14 8 4 15 12 15 27 23 23 21 21 16 9 9 12 7 6 13 16 15 13 12 9 9 8 7 7 6 7 7 5 4 4 4 9 14 15 14 13 11 11 10 9 7 5 5 5 5 6 7 8 9 10 10 9 7 7 6 5 4 4 5 7 9 9 9 10 12 13 13
11 10 8 7 7 5 5 4 4 5 2 1 2 4 6 8 9 12 14 9 20 28 24 18 7 6 12 12 14 11 18 18 18 27 25 23 20 19 17 9 9 11 6 2 12 17 14 15 13 11 11 9 7 6 6 7 7 7 7 6 4 6 10 13 14 13 11 11 10 9 6 5 5 5 5 6 7 8 8 10 11 10 8 7 7 5 4 4 6 7 8 9 9 9 11 12 13
12 10 8 10 10 7 5 5 5 4 3 3 3 3 6 11 13 13 16 11 16 25 24 20 9 5 7 4 9 10 17 23 22 24 24 24 21 19 17 10 9 9 2 2 8 14 14 16 14 13 12 10 9 7 7 7 7 8 8 8 8 7 7 8 11 11 11 12 11 8 6 4 4 5 5 6 7 8 8 9 10 11 9 8 6 5 5 6 6 7 7 8 9 10 11 12 13
12 9 8 8 6 5 5 5 4 2 3 5 4 6 8 13 16 12 13 12 10 17 23 22 12 4 4 3 4 4 15 24 24 21 21 22 22 17 17 11 9 8 4 1 4 11 15 16 14 14 12 11 11 9 9 8 8 7 7 7 8 9 10 11 11 11 12 13 11 8 7 4 5 5 5 6 6 7 9 10 10 10 10 8 7 7 8 7 6 5 6 7 8 10 11 11 12
11 7 8 8 4 4 4 4 4 3 3 5 6 10 14 15 17 14 10 13 10 13 23 20 15 7 2 7 4 4 16 25 23 19 18 18 21 17 16 12 8 8 5 3 5 13 16 15 14 12 11 12 11 11 11 10 9 8 7 6 7 8 11 14 15 15 15 12 10 10 9 6 5 5 6 6 5 6 10 10 10 10 9 9 9 9 9 7 6 5 5 6 7 8 9 10 11
9 7 8 6 4 5 4 3 3 3 4 5 7 12 17 15 14 17 11 11 12 12 21 18 14 12 3 5 4 6 17 25 22 17 17 17 20 19 16 15 10 9 6 6 7 14 15 15 15 12 11 11 11 11 12 12 10 8 8 7 8 9 10 13 16 18 17 15 13 14 12 10 7 6 7 7 5 5 9 11 11 11 10 10 11 10 9 7 6 4 3 4 5 7 8 9 10
6 7 9 7 4 5 3 3 3 2 3 5 8 14 16 16 11 15 13 10 12 12 22 20 11 13 5 4 4 7 17 22 22 20 21 20 21 22 18 16 12 11 9 9 9 13 15 18 18 15 13 12 12 11 12 13 10 8 9 9 9 10 12 13 15 17 18 18 17 16 14 13 10 8 9 8 6 5 7 10 11 12 12 12 12 10 9 7 5 3 1 2 3 6 7 8 9
5 5 7 6 3 3 3 4 3 1 3 4 7 14 14 17 12 10 11 11 13 10 20 21 11 10 2 5 6 8 18 21 25 27 26 23 22 24 21 17 13 11 10 9 9 13 17 21 19 17 16 14 14 11 11 14 12 11 11 10 10 10 12 13 13 14 16 17 18 17 15 13 11 11 11 10 8 6 6 9 11 12 13 13 12 11 9 7 5 3 1 1 3 6 7 8 8
8 4 7 5 2 2 4 3 2 1 3 4 5 13 12 15 12 6 7 12 17 10 12 20 15 7 3 8 8 11 22 24 28 29 28 26 23 23 21 18 14 12 11 8 5 11 18 21 20 18 17 15 15 14 13 15 13 11 11 10 10 10 11 12 11 12 15 16 17 18 17 14 12 12 13 11 10 8 8 9 11 12 13 14 13 12 10 8 6 3 1 1 4 6 7 7 7
11 7 7 4 2 2 3 2 1 2 2 4 6 13 12 12 12 8 9 10 16 13 7 16 16 4 6 12 10 20 27 26 28 27 28 27 22 20 19 17 15 13 11 10 4 12 19 21 21 19 18 17 17 16 16 15 14 12 11 10 10 10 11 12 10 13 16 18 18 18 18 16 14 14 14 13 11 11 10 10 12 13 15 15 13 12 10 8 6 3 1 2 4 5 6 6 7
15 11 7 4 3 2 2 1 0 4 1 3 9 14 10 12 13 13 15 7 8 16 9 14 17 4 7 11 11 24 28 27 28 26 26 25 21 18 15 14 13 13 12 12 6 12 18 20 21 20 20 20 18 18 17 15 14 12 12 10 10 9 10 11 10 12 16 19 20 19 19 17 15 14 14 14 13 12 12 13 14 15 16 15 14 12 10 8 6 4 2 2 3 4 4 5 6
15 12 6 3 3 1 2 1 1 3 1 4 10 14 8 10 15 12 13 9 5 15 15 14 18 10 8 11 14 23 26 28 28 26 25 22 20 17 14 13 11 13 13 14 11 7 11 18 22 19 19 22 21 20 18 15 14 13 12 10 10 9 8 10 11 11 14 18 19 18 19 17 16 14 14 14 13 12 13 15 15 18 18 17 15 12 10 8 5 3 1 1 2 2 3 5 6
11 10 6 4 3 2 1 1 1 1 3 6 10 13 7 6 14 9 5 11 10 11 16 15 14 14 12 13 16 21 25 28 28 26 24 22 22 20 17 14 12 13 13 14 17 14 9 11 20 18 17 22 22 19 16 16 15 13 11 10 10 9 8 9 11 11 13 18 18 17 18 17 15 14 14 13 13 12 13 14 16 19 20 19 16 12 10 7 5 3 1 1 1 1 3 5 6
6 5 5 4 2 1 2 3 1 1 2 6 8 10 8 5 11 12 4 11 17 13 17 17 12 14 14 13 16 20 25 27 28 28 26 25 25 24 22 19 17 16 15 16 18 18 16 11 13 17 18 20 20 19 20 18 16 14 12 10 10 9 9 9 11 11 13 18 18 17 17 16 15 14 14 13 12 12 12 13 15 18 21 19 15 12 10 7 6 4 2 2 2 2 4 6 7
10 4 5 3 3 2 2 2 2 2 2 5 8 7 9 7 9 13 6 9 20 16 18 21 17 17 17 15 16 20 25 27 29 29 28 27 26 27 25 23 21 19 19 19 20 19 18 17 12 13 17 20 19 21 22 20 18 16 13 11 9 8 8 9 11 12 14 17 17 16 16 15 14 14 14 13 12 12 12 13 14 18 20 17 14 11 10 8 7 3 2 3 3 3 5 7 7
9 5 5 1 5 4 4 5 6 5 3 5 7 7 8 8 9 10 4 5 13 11 13 18 19 22 21 18 19 22 26 28 29 30 30 28 26 26 26 25 24 22 23 23 24 21 18 16 15 16 14 16 19 21 22 21 20 19 16 12 10 7 7 8 11 13 15 17 16 15 15 13 14 14 13 13 12 12 12 12 14 19 18 16 13 12 11 9 7 3 2 4 3 4 6 7 7
6 5 6 5 7 5 4 6 7 6 5 4 6 7 5 6 10 10 5 3 6 7 9 12 15 19 18 19 21 24 28 30 31 31 31 30 27 25 24 24 24 23 24 24 25 22 19 17 15 15 14 13 15 17 19 21 20 18 17 14 12 9 6 8 11 14 15 16 16 14 13 13 13 13 13 12 12 12 12 12 15 19 18 16 14 13 12 9 7 5 4 4 3 5 6 6 8
8 6 10 9 6 4 3 5 5 5 6 5 4 6 3 3 7 9 7 4 3 9 9 9 11 12 13 16 19 23 27 31 32 31 30 31 30 27 24 22 22 23 23 24 25 22 19 18 16 15 14 14 15 16 14 19 20 17 17 17 14 11 7 6 10 14 15 16 15 14 13 13 14 12 11 11 11 12 14 14 16 18 17 16 15 14 11 8 9 8 6 4 5 6 6 7 8
8 6 9 9 7 6 5 4 4 4 7 6 3 2 2 2 4 4 4 3 4 9 7 8 9 7 9 14 18 21 26 29 31 30 29 30 30 29 26 22 21 22 23 23 23 22 19 17 17 17 15 15 17 19 14 14 19 17 18 18 15 13 10 6 8 13 15 17 16 14 14 14 15 13 11 11 10 12 15 16 16 17 16 15 15 15 11 9 11 9 6 5 7 7 6 7 8
13 4 5 8 7 7 6 4 4 3 6 7 3 2 1 2 1 0 1 1 6 8 5 6 6 6 9 13 17 20 24 27 28 28 28 28 28 28 26 22 20 20 22 22 21 20 19 17 16 16 17 17 16 17 14 14 17 17 19 20 16 15 13 10 11 15 18 19 18 16 14 14 15 14 13 12 11 11 14 17 18 18 17 16 16 16 13 13 12 9 6 6 7 6 5 6 8
11 4 5 7 4 4 3 2 2 2 4 6 4 2 2 2 2 3 3 2 6 8 4 4 5 7 10 13 16 19 23 26 27 28 27 26 26 25 23 21 18 18 19 20 20 19 18 18 16 14 14 14 13 12 11 14 17 16 18 19 16 15 16 15 15 18 21 20 19 18 16 15 14 15 15 13 12 11 10 13 16 15 14 16 17 14 13 13 12 9 8 7 6 4 3 6 8
5 6 7 6 4 3 1 1 1 2 1 6 5 3 3 3 3 4 5 3 6 7 3 3 5 8 10 12 16 19 23 25 26 28 26 24 24 24 23 21 18 15 17 18 19 19 17 18 16 13 11 8 7 9 10 12 14 13 13 15 18 17 18 17 16 18 20 19 19 18 17 16 16 15 15 14 12 12 10 9 11 10 8 10 11 9 9 11 10 10 9 8 6 3 4 6 8
8 10 8 8 7 6 5 3 3 1 3 7 6 5 3 4 2 4 5 4 5 5 2 4 6 8 10 12 16 20 22 23 24 25 25 24 23 25 25 23 21 16 15 16 18 19 17 18 17 12 9 6 4 7 9 10 9 10 9 13 18 18 18 17 16 17 19 18 16 17 18 17 16 14 13 12 11 10 9 9 9 9 7 7 7 7 10 10 10 11 9 8 6 4 6 7 8
13 11 8 6 6 7 8 6 6 3 2 10 8 3 2 3 2 4 5 5 5 4 2 4 6 7 10 13 18 20 21 22 22 22 23 25 24 24 24 23 23 18 14 15 17 18 17 17 17 14 9 3 2 4 5 5 5 5 7 13 15 15 17 18 17 17 17 16 14 15 17 16 14 12 10 9 8 8 8 8 9 9 8 8 9 10 13 13 12 11 8 8 7 6 8 8 8
10 7 4 2 4 5 6 7 9 5 5 14 9 3 4 2 4 6 5 5 4 3 3 4 6 7 11 15 19 19 20 21 20 20 21 23 23 23 23 23 23 20 16 14 15 16 17 18 16 13 9 4 1 2 2 4 6 7 10 15 17 15 16 18 18 17 16 15 13 13 15 15 13 10 8 6 6 6 7 7 8 7 7 8 10 12 14 14 13 10 10 10 9 8 9 9 9
2 1 3 2 5 4 3 6 9 6 6 13 7 1 4 6 8 8 6 6 4 3 4 4 6 8 12 16 18 17 19 20 19 19 20 20 22 22 22 22 22 20 17 14 15 15 16 17 15 11 8 4 3 2 1 3 6 8 11 18 21 20 18 18 18 17 17 16 14 14 13 13 11 7 4 3 5 8 9 9 9 8 7 8 9 11 14 15 14 12 12 12 12 12 12 11 10
1 2 3 2 4 4 5 5 8 7 7 13 6 2 5 7 8 7 8 8 4 3 3 4 6 9 13 16 17 16 18 19 18 17 18 19 20 21 22 23 22 20 17 13 13 15 15 15 12 9 8 5 4 5 3 3 5 7 11 17 22 23 22 19 17 17 19 18 16 15 14 10 8 5 3 4 5 7 8 7 7 6 6 8 10 11 13 15 14 13 13 14 15 16 15 13 12
3 3 3 3 3 4 7 2 8 8 7 11 7 2 5 6 7 9 6 9 4 3 3 4 7 10 13 15 15 16 18 18 16 15 17 18 20 21 22 22 22 20 17 11 11 12 12 12 9 8 8 6 5 5 6 6 5 4 8 12 16 20 22 21 20 21 21 20 18 16 14 9 7 5 4 5 5 5 5 5 3 2 3 5 8 11 13 14 14 14 14 16 16 17 16 15 13
4 3 1 4 3 5 6 0 8 14 7 7 6 1 3 5 10 15 6 8 5 3 3 5 7 10 13 14 14 16 18 18 15 14 17 18 20 21 21 22 22 21 18 10 9 10 10 9 6 7 8 8 9 7 8 9 8 6 3 5 7 14 20 21 22 22 20 19 17 15 12 11 10 8 6 6 4 5 5 3 3 3 4 5 6 9 12 14 16 16 16 16 17 17 17 14 13
4 4 1 3 2 3 5 2 8 18 8 4 5 1 3 7 14 17 7 8 6 2 4 5 7 10 12 13 14 16 18 17 16 16 17 18 19 21 21 22 22 22 20 11 7 10 10 7 7 9 8 10 11 10 10 11 10 9 6 3 3 7 12 15 19 21 20 19 16 14 12 10 11 9 8 8 6 5 4 5 6 7 7 8 8 8 10 12 14 15 15 16 16 16 15 14 14
3 3 2 3 4 2 4 5 8 16 9 3 6 3 7 10 13 14 5 7 6 2 3 5 7 9 11 12 13 15 16 15 15 16 17 17 18 20 20 21 22 23 22 17 10 11 9 8 11 10 8 12 13 12 13 14 12 10 8 7 5 5 4 5 11 16 18 18 16 16 14 11 10 11 11 12 10 9 10 10 11 10 10 10 10 10 9 11 13 15 16 17 17 17 17 16 16
4 3 2 3 5 4 5 5 6 14 9 3 6 5 9 11 11 14 7 6 5 2 2 5 7 8 11 12 12 13 14 14 14 15 17 16 16 18 19 19 20 21 22 22 17 13 11 13 14 11 11 15 14 13 15 16 14 12 11 9 8 9 8 6 5 7 10 13 14 15 14 12 14 15 15 14 12 11 12 12 11 11 10 10 11 12 12 14 16 16 16 16 16 16 16 16 17
4 2 2 3 4 5 6 4 5 15 8 2 5 7 9 8 8 12 7 6 4 1 2 5 6 8 11 11 11 12 12 12 13 14 15 15 14 15 16 16 17 19 21 22 21 18 16 16 14 13 15 15 13 14 14 14 14 13 13 12 12 13 10 8 7 5 4 6 8 9 9 9 11 12 12 11 11 11 11 10 9 9 9 10 11 12 13 14 14 14 13 12 12 13 12 11 10
2 1 1 3 2 5 8 4 4 13 6 4 6 9 10 8 7 9 2 6 3 1 3 6 5 8 10 9 10 10 10 11 11 12 13 13 13 14 14 14 14 16 18 20 20 21 20 18 16 15 16 14 13 14 13 13 13 12 13 14 15 15 13 10 9 8 5 4 3 4 4 5 7 7 8 8 8 8 8 8 8 8 7 8 9 9 10 10 10 9 9 9 10 10 7 4 6
2 2 1 3 2 5 7 2 6 10 3 3 8 8 9 7 6 6 3 3 1 2 4 6 6 8 8 8 9 9 10 10 11 13 13 12 13 13 14 14 14 14 16 17 18 20 21 20 19 16 15 14 13 14 13 13 12 11 12 13 13 13 14 13 11 10 8 6 4 2 2 2 3 4 4 3 3 2 3 3 4 4 4 4 5 5 5 5 5 6 6 5 6 5 2 2 8
2 2 2 3 3 3 4 2 8 10 1 2 7 5 5 6 6 5 4 1 2 2 5 6 7 8 8 7 8 9 10 10 11 13 14 13 13 14 14 14 14 14 14 15 16 18 19 20 20 18 16 15 14 14 14 13 12 11 11 11 11 10 12 12 11 11 10 7 6 6 5 5 4 3 3 4 3 3 3 2 2 2 2 2 3 2 1 2 3 3 3 3 3 3 3 5 8
3 0 2 2 3 1 4 5 9 7 0 2 6 3 3 5 6 5 4 4 4 5 7 8 8 8 8 7 7 9 10 11 12 13 13 14 13 14 14 14 14 14 15 15 16 17 17 17 18 17 16 16 15 14 13 13 12 12 11 10 10 9 9 9 9 9 9 7 7 7 7 8 8 6 6 5 4 4 3 3 3 3 3 3 3 2 2 1 1 2 2 1 2 3 4 6 8
5 2 2 2 3 3 4 7 7 4 3 5 7 5 4 5 5 6 5 5 6 8 10 11 9 8 8 8 7 8 10 11 12 12 12 13 13 13 13 13 13 14 16 16 16 16 16 16 16 16 15 15 15 15 14 13 12 12 12 11 10 9 8 8 9 9 9 8 8 8 8 8 8 7 7 6 5 5 5 5 5 4 4 3 3 3 3 3 3 3 4 3 3 4 3 4 6
5 2 2 2 2 3 4 5 3 3 1 4 5 4 3 5 5 6 5 6 8 9 11 12 10 9 9 8 8 8 10 11 12 12 12 12 12 12 12 13 14 14 15 15 15 15 15 15 15 15 15 15 15 15 15 14 13 12 11 10 9 8 8 10 11 11 11 10 10 10 9 9 9 8 8 7 7 7 7 6 6 5 4 4 4 4 4 4 4 5 5 4 3 4 4 2 4
4 1 3 2 6 6 2 2 2 0 1 4 5 3 2 3 5 6 5 6 8 7 9 13 11 7 8 8 8 8 9 11 12 12 11 12 12 12 12 13 13 14 15 14 14 15 15 15 15 15 15 14 14 14 13 13 12 12 11 10 9 9 10 11 12 11 12 11 10 10 10 10 10 9 9 9 9 9 8 7 7 6 6 7 6 6 7 7 7 8 8 7 6 6 6 5 4
5 2 2 5 5 2 2 3 1 1 2 4 6 3 2 3 6 5 4 3 6 7 7 10 11 8 7 8 9 9 10 11 12 12 11 11 12 13 13 13 13 14 14 15 16 17 17 16 15 15 14 14 14 13 12 12 12 11 11 10 10 10 11 11 11 11 11 10 9 9 9 9 9 9 9 9 8 8 7 7 7 7 7 8 8 8 9 9 8 8 8 8 7 7 8 7 6
8 4 2 2 2 3 3 3 1 2 5 2 6 4 3 3 5 5 5 3 5 6 5 7 8 7 7 8 9 11 12 12 12 12 11 11 11 12 13 13 13 13 14 15 16 17 17 17 16 15 14 13 13 12 12 11 11 11 11 11 11 11 11 11 11 10 10 9 8 8 8 8 8 8 8 8 8 7 7 7 7 6 7 7 8 8 8 8 8 8 7 8 7 7 7 6 6
11 5 4 4 4 4 3 2 2 4 4 3 5 2 2 2 5 3 2 3 4 4 5 6 7 7 8 8 10 11 13 14 14 13 13 12 11 11 12 13 13 13 13 14 15 15 16 16 16 15 14 12 11 11 11 10 10 10 10 10 11 11 11 11 10 9 9 8 8 8 8 8 7 7 7 7 7 7 6 6 6 6 6 7 7 7 8 7 7 7 7 7 6 6 7 7 7
8 5 3 3 3 3 4 4 4 5 3 5 4 2 1 1 4 3 4 6 5 4 4 7 7 7 8 9 10 11 13 15 15 15 15 15 14 12 11 11 11 11 11 12 13 13 14 14 14 14 13 12 11 10 10 10 10 9 9 9 10 10 10 9 9 9 8 7 7 7 7 7 6 6 6 5 5 5 5 4 5 5 5 5 5 6 6 6 7 7 6 6 6 7 8 8 7
6 4 4 4 3 4 4 4 3 2 4 3 1 3 1 3 5 5 6 7 5 4 5 7 8 7 8 10 10 12 13 15 17 16 15 17 17 15 14 12 11 10 9 10 11 12 12 13 13 12 12 11 11 10 9 8 8 8 8 8 8 9 8 8 8 8 7 7 6 6 6 5 5 5 4 3 3 4 3 3 3 4 4 4 5 5 5 6 6 6 6 6 7 7 8 8 9
6 4 3 4 3 5 4 4 3 2 5 4 1 2 1 3 4 5 6 8 7 5 6 6 7 8 8 9 10 12 13 16 18 17 16 17 17 17 16 15 14 12 10 9 9 10 10 11 11 11 11 10 10 10 9 8 8 7 7 7 7 7 7 7 7 7 7 6 6 6 5 5 5 4 3 3 3 3 3 3 3 3 3 3 4 4 4 5 5 5 6 6 7 7 8 9 10
4 1 2 4 3 3 1 2 1 3 6 6 4 1 1 4 3 4 8 11 6 3 5 6 8 8 8 9 11 12 14 16 18 19 19 18 17 17 17 17 17 15 13 11 9 8 8 9 9 10 10 10 9 9 9 9 8 7 7 6 6 6 6 6 6 6 6 6 6 6 6 5 5 4 4 4 3 3 2 3 3 3 4 4 4 4 4 5 5 6 6 7 7 8 8 9 10
3 1 4 2 2 3 1 2 4 2 3 5 4 1 3 4 3 5 11 10 4 4 5 7 9 9 9 10 12 13 14 16 17 18 19 18 17 17 16 16 17 17 16 14 11 10 9 8 8 8 9 9 9 8 8 8 8 8 7 7 7 7 6 6 6 6 6 6 6 6 6 6 5 5 5 4 4 3 3 4 4 4 4 5 5 5 6 6 6 7 8 8 9 9 9 10 10
2 3 2 1 2 5 2 2 2 3 2 4 3 3 6 4 1 4 9 9 8 8 7 8 11 11 10 11 12 11 12 14 17 18 17 16 15 16 16 16 16 16 16 15 14 12 11 11 9 8 7 7 8 8 7 7 7 8 8 8 8 8 7 7 6 6 6 6 7 7 6 6 6 6 5 5 4 4 4 4 4 5 5 5 5 6 6 7 7 8 9 9 10 10 10 10 10
3 2 1 1 2 3 3 1 3 5 2 4 3 4 6 3 1 5 8 8 7 8 7 10 13 11 10 12 12 11 11 13 17 19 18 15 14 14 14 15 15 15 15 15 14 14 13 13 12 11 9 8 7 7 7 6 6 7 7 7 8 8 8 8 7 7 7 7 7 7 7 7 7 7 6 6 5 5 5 5 5 5 5 6 6 6 7 7 8 8 9 9 9 9 9 10 10
4 3 3 2 3 2 2 1 1 3 3 4 5 5 4 2 3 4 6 4 5 6 6 10 12 11 12 15 16 14 13 15 18 20 19 16 15 14 13 12 12 13 14 14 14 15 15 14 14 14 13 11 10 8 7 6 6 6 6 6 7 7 7 8 8 8 8 7 7 7 7 8 8 8 8 7 7 7 7 7 7 7 7 7 7 8 8 8 9 9 8 8 8 8 9 9 10
4 3 1 1 3 1 1 0 1 1 1 3 4 4 4 4 5 3 5 6 6 5 5 7 10 13 17 20 20 16 14 17 19 19 19 16 13 12 11 11 11 11 12 13 14 15 16 16 16 15 15 15 14 13 11 9 8 7 7 7 6 6 7 7 7 8 8 8 8 8 8 7 7 8 8 8 8 8 8 8 8 8 8 8 8 9 9 9 9 9 8 8 8 8 9 9 10
2 3 3 3 2 1 1 1 1 2 2 1 3 5 6 5 4 4 7 6 7 5 4 9 11 17 22 22 19 15 15 17 18 19 18 13 10 10 10 11 11 12 13 13 14 14 15 16 16 16 16 16 16 16 15 14 12 11 10 9 8 8 8 8 7 7 7 8 8 8 9 8 8 8 8 8 9 9 10 10 10 10 9 10 10 10 10 10 10 10 9 8 8 8 8 9 9
2 1 2 2 1 2 2 2 3 1 2 3 1 4 8 6 3 5 6 5 7 6 8 14 16 21 24 21 19 16 15 17 18 18 17 12 8 8 9 10 11 12 13 15 15 15 14 15 15 15 16 16 15 15 16 16 16 16 15 13 12 11 11 11 10 9 8 8 8 8 9 9 9 9 9 8 9 9 10 10 10 11 11 11 12 12 12 12 11 11 10 9 8 8 8 8 8
Wind_Direction
223 223 230 241 270 288 332 26 91 26 64 86 15 21 356 340 320 347 7 3 7 352 13 46 50 71 88 94 96 78 55 56 34 354 156 341 337 356 351 279 280 340 178 173 175 188 189 191 194 192 188 182 179 177 184 187 189 190 186 179 170 172 176 178 175 163 156 154 157 155 154 153 154 160 167 185 171 172 169 141 124 134 139 131 131 118 100 78 66 60 53 48 45 41 41 42 49
221 215 221 218 253 310 311 30 85 21 58 70 22 45 323 325 354 4 7 15 351 336 14 51 61 72 82 91 83 73 53 41 20 10 343 339 345 13 337 272 278 309 233 184 178 188 189 191 194 195 197 190 187 185 187 188 193 195 194 185 175 177 177 180 182 176 167 158 160 156 152 152 153 164 178 200 177 168 167 155 138 139 142 135 131 113 97 79 69 64 54 48 45 39 36 36 43
212 205 209 200 205 85 88 44 79 76 72 92 24 7 336 351 354 340 346 19 5 9 46 33 54 48 50 63 43 59 39 23 13 7 360 353 359 343 332 300 284 285 277 189 177 185 188 192 194 194 198 197 194 194 197 199 197 193 196 191 186 190 184 182 185 184 178 168 164 156 156 155 157 173 189 203 191 171 163 165 157 145 141 134 129 113 99 86 74 64 58 50 43 37 31 31 34
189 185 185 178 166 77 61 49 77 97 83 120 123 4 359 356 333 328 348 20 21 34 43 28 57 37 51 48 25 63 13 12 12 5 360 0 356 343 336 312 286 279 277 189 179 182 184 188 193 197 190 193 198 200 201 203 208 196 190 196 203 204 196 189 186 183 183 180 171 164 169 172 175 192 208 214 214 188 165 170 171 161 150 139 137 121 108 93 80 66 58 47 39 33 27 27 29
164 164 167 161 135 73 70 64 49 79 69 281 107 1 348 340 327 335 349 24 29 37 36 37 86 46 61 48 38 76 9 8 7 5 357 355 351 343 337 312 297 290 292 199 189 178 185 186 187 196 190 188 192 203 200 198 208 206 191 189 203 213 204 190 186 184 183 187 179 172 180 186 188 196 210 209 214 203 176 172 175 173 166 156 151 133 120 103 84 68 56 43 35 26 24 25 27
148 144 131 102 78 71 77 72 60 75 35 345 89 342 330 342 337 345 359 25 31 36 37 38 65 60 69 56 60 65 21 17 3 4 357 350 347 344 339 314 316 310 333 311 194 176 186 190 187 194 193 187 184 202 205 204 208 207 204 199 205 221 205 184 186 189 185 191 186 178 182 192 190 193 200 194 199 199 184 176 174 173 175 174 165 151 138 111 86 67 53 41 30 21 21 21 23
141 134 111 89 63 58 77 82 84 80 15 17 66 345 333 351 353 3 13 13 20 30 32 30 34 71 76 63 67 53 18 15 5 1 355 351 349 346 341 312 308 311 330 340 195 181 193 193 194 192 194 192 180 189 201 215 215 219 222 217 219 224 222 203 203 204 202 199 191 185 185 195 197 197 194 187 189 188 182 178 175 174 177 183 180 167 140 110 88 68 54 42 31 25 22 19 20
140 123 91 88 53 49 84 87 76 73 27 17 25 7 357 1 9 22 25 24 19 18 19 23 30 79 60 28 101 35 3 5 2 356 349 349 349 347 344 317 284 298 267 272 170 191 200 197 202 194 196 197 187 186 191 204 203 210 218 224 229 225 228 227 226 225 221 204 191 196 201 212 206 206 205 194 188 179 177 175 175 177 179 184 181 156 134 116 101 80 62 47 37 30 24 20 19
129 106 81 86 72 72 78 78 61 50 30 7 11 9 8 12 23 32 33 35 29 11 13 19 35 55 8 30 77 350 355 356 353 347 346 345 346 346 346 337 293 298 278 244 173 191 195 194 208 204 203 203 202 197 194 197 190 191 197 212 230 235 232 228 228 226 227 212 201 213 217 232 224 213 218 209 191 175 174 172 172 174 176 178 164 146 138 131 121 94 68 51 39 28 22 18 16
109 82 88 85 72 80 58 50 49 40 8 346 3 10 12 13 29 38 38 39 27 15 14 17 37 34 6 22 27 353 353 346 342 336 340 341 346 346 342 349 325 302 269 236 189 186 186 186 201 207 211 214 218 213 213 210 197 196 204 222 235 246 244 234 230 224 226 222 219 224 226 238 241 223 222 217 194 177 175 172 172 172 170 166 155 148 148 143 132 101 68 46 31 21 17 13 11
79 52 88 80 55 71 67 65 49 47 350 329 2 11 14 15 32 37 39 43 24 28 19 19 26 12 10 10 353 353 347 342 346 342 343 343 344 345 340 345 334 307 269 235 197 193 190 183 191 197 204 214 222 227 224 217 215 215 220 238 245 248 247 240 233 223 223 223 223 227 230 236 241 227 218 217 201 188 175 173 174 172 169 164 158 156 159 154 146 125 89 39 22 15 14 8 7
73 35 79 71 50 72 104 107 45 318 315 337 3 3 10 24 36 26 33 36 15 33 25 18 360 347 13 352 336 332 341 348 353 348 346 343 342 343 338 336 328 307 272 240 204 203 195 184 186 192 198 204 209 217 209 207 219 222 224 239 246 246 244 242 234 218 215 219 219 220 226 229 231 224 215 213 207 199 177 179 178 174 173 170 167 166 168 170 167 162 174 350 16 16 12 6 5
91 71 86 78 59 100 105 106 354 300 340 344 339 356 15 30 34 18 33 38 20 25 21 12 353 347 34 340 327 331 345 353 350 346 344 341 343 340 333 328 320 307 284 273 227 191 188 186 187 189 198 204 203 203 194 198 212 215 224 238 244 243 241 241 229 211 210 214 214 214 217 217 217 217 217 214 210 206 193 192 185 182 182 176 176 177 178 182 180 179 192 5 20 18 10 3 4
94 81 91 103 60 91 92 82 332 73 12 322 335 359 24 35 34 40 37 38 27 20 4 8 1 354 8 348 337 343 348 351 346 343 341 339 338 334 330 323 312 310 288 287 276 179 184 189 188 189 198 204 204 201 194 196 205 213 225 234 241 243 242 241 225 213 215 214 213 214 213 210 209 212 218 218 216 210 204 204 195 196 192 180 183 186 187 189 187 188 178 34 23 14 6 5 4
100 89 84 103 52 35 67 105 141 89 119 326 1 1 26 43 39 48 35 34 36 22 13 14 17 33 1 351 334 342 344 344 343 338 337 335 331 327 330 324 311 309 288 286 279 187 189 192 190 194 198 200 203 202 201 201 204 214 225 232 239 241 241 244 235 224 223 217 212 213 211 207 205 211 216 219 224 216 211 213 206 206 199 186 188 192 194 198 197 195 160 48 21 7 5 10 3
97 94 79 80 56 35 69 36 33 75 321 335 9 8 24 41 37 51 36 31 40 21 26 27 29 41 8 350 334 337 339 339 340 334 329 325 323 320 323 326 316 312 301 296 291 241 206 195 194 200 195 196 203 202 205 208 208 214 222 235 240 240 240 242 241 234 225 215 209 210 208 204 204 211 215 218 227 224 220 219 214 211 202 193 195 196 199 204 205 202 169 24 357 353 359 6 1
85 82 71 75 71 76 117 86 63 95 311 334 10 18 20 24 28 39 26 27 30 21 28 28 30 34 11 351 342 337 334 336 337 334 327 320 321 319 318 321 316 313 310 306 302 304 295 215 202 207 196 194 202 203 208 210 209 210 216 235 244 244 246 242 238 237 224 209 206 208 205 202 205 212 218 220 224 226 226 225 221 209 198 194 196 199 204 209 213 224 248 282 305 319 351 357 353
61 73 74 89 105 85 149 182 193 130 308 335 12 25 25 14 12 13 351 17 22 19 18 13 13 22 12 351 343 335 331 335 338 338 335 331 328 326 326 327 327 324 319 316 312 314 316 291 225 212 206 201 203 204 209 210 209 212 211 227 245 248 250 249 238 234 220 206 203 204 203 204 207 215 221 223 224 228 228 227 219 201 194 194 197 201 206 214 222 236 264 254 259 291 345 349 345
61 95 86 100 176 150 117 125 48 42 337 343 12 31 41 28 4 10 6 12 19 14 359 359 358 2 6 353 340 335 333 337 339 341 342 340 337 334 334 331 331 331 328 324 321 322 319 310 284 246 223 210 209 209 209 206 206 212 212 215 227 240 251 251 240 230 214 204 203 203 203 205 209 216 221 224 226 227 227 227 212 193 193 197 200 205 208 222 235 246 262 253 263 308 344 343 343
51 79 82 142 174 123 81 72 57 53 29 13 8 19 54 44 24 20 11 11 21 11 343 347 347 348 354 346 338 335 335 338 340 341 342 343 342 339 338 334 331 333 334 333 329 329 325 314 298 283 253 216 209 212 211 206 206 206 207 208 202 215 247 251 237 225 209 200 201 202 204 207 212 216 219 225 226 221 220 219 200 189 194 201 204 207 211 229 241 247 256 253 277 324 339 342 347
43 60 112 164 155 107 75 73 64 58 38 32 6 7 47 46 37 37 39 39 2 346 340 337 332 338 341 333 332 332 333 339 342 341 339 341 342 339 339 336 333 331 332 333 333 331 326 318 299 282 269 240 220 215 207 206 210 201 200 205 194 192 224 255 235 216 205 198 199 201 203 209 215 217 218 223 224 215 209 203 191 188 195 204 207 208 217 230 226 226 241 249 287 314 330 347 354
68 66 117 135 134 111 110 97 77 65 41 33 14 3 12 28 45 48 51 84 329 333 340 337 329 329 329 324 325 328 332 338 342 344 340 338 340 338 336 336 332 328 328 330 333 332 326 319 305 286 267 254 243 237 217 206 208 200 203 208 198 188 197 245 229 205 198 194 197 200 203 208 211 214 216 219 222 212 203 197 193 194 200 207 209 211 221 222 209 210 217 236 280 296 321 352 354
90 73 106 114 110 113 131 114 99 80 39 24 9 339 336 41 68 59 52 77 350 344 342 341 333 313 315 319 324 330 334 339 342 345 343 338 338 337 334 334 333 329 330 331 332 330 325 316 304 294 275 264 254 248 247 224 209 204 213 211 199 186 182 212 208 194 194 193 197 200 202 207 206 204 206 211 217 214 209 203 196 197 203 210 213 215 222 215 201 198 206 232 265 283 321 349 346
92 96 114 111 104 104 119 110 114 105 45 31 45 136 287 18 56 278 339 345 351 4 3 340 321 293 307 317 328 336 337 338 340 344 346 340 338 338 332 329 331 330 332 334 333 330 326 319 310 301 285 280 272 255 254 238 214 209 216 214 203 185 177 186 189 190 195 196 200 201 202 206 204 201 201 204 204 213 220 210 201 201 207 215 214 215 220 209 193 195 216 240 256 276 327 340 337
71 123 139 126 116 102 112 94 112 142 57 31 40 104 247 279 267 249 249 302 355 12 12 333 315 302 315 329 336 338 338 337 338 342 346 343 338 337 332 326 326 328 332 336 336 334 333 330 322 310 295 290 285 268 256 235 219 216 217 214 207 192 184 185 187 193 197 200 205 204 202 203 202 199 199 199 195 204 218 208 206 209 213 219 216 218 218 199 188 203 223 234 247 271 319 325 334
71 125 137 128 112 102 94 336 3 207 306 2 3 333 275 226 251 254 242 287 348 7 3 317 321 322 334 343 343 342 340 338 338 341 344 344 341 338 335 329 325 331 336 341 341 339 341 339 333 319 305 301 281 259 260 250 239 244 234 208 201 198 191 191 193 197 201 205 209 208 205 202 200 197 194 195 195 199 205 204 210 210 211 216 218 232 221 197 198 216 223 230 244 264 288 312 333
129 122 119 105 95 79 51 25 14 294 278 345 340 316 293 196 206 268 249 275 330 354 343 322 328 337 349 347 347 345 341 341 341 342 343 346 346 340 339 331 325 334 341 343 343 343 346 343 341 335 316 308 272 243 250 261 270 284 257 202 198 199 192 195 202 205 209 213 216 217 213 207 201 194 191 193 195 200 204 210 217 214 216 211 208 218 207 203 218 226 228 233 246 262 275 302 325
127 114 108 83 79 68 44 42 18 354 335 347 337 335 358 172 195 277 267 273 307 343 326 333 340 341 352 351 349 346 343 346 343 344 348 350 351 345 341 333 325 331 343 347 346 345 347 345 344 346 340 335 286 250 239 243 252 261 230 204 202 204 198 199 205 211 218 220 220 214 208 207 201 191 192 195 198 212 222 226 228 224 220 206 198 201 200 208 221 227 232 232 240 255 271 292 304
121 103 105 347 19 39 15 24 8 358 8 350 348 22 2 250 250 280 281 272 279 336 333 333 343 342 351 351 349 348 348 350 346 349 352 352 354 350 345 337 328 332 344 354 352 346 346 345 344 348 352 15 54 255 211 194 199 194 200 205 204 204 206 206 208 215 223 225 223 217 208 204 197 188 193 200 203 230 245 245 245 238 222 208 203 205 205 212 219 226 231 226 229 240 253 266 270
135 28 83 348 3 5 344 19 3 5 5 349 358 17 310 267 274 281 264 263 269 318 332 326 338 345 350 351 351 354 357 356 351 350 350 352 356 355 351 343 334 337 344 354 357 349 348 345 341 351 1 14 73 81 149 175 181 180 186 196 199 202 205 206 212 218 223 227 228 229 222 204 193 189 200 222 231 241 247 249 255 254 246 235 219 212 211 216 221 225 228 229 232 234 237 246 250
327 324 40 29 24 335 311 12 15 21 349 345 18 160 278 277 300 310 249 243 265 295 310 318 338 349 351 354 355 359 4 1 355 352 350 353 357 357 357 350 343 345 344 352 360 349 349 349 342 4 16 6 64 87 85 123 152 172 182 183 185 195 202 203 214 225 225 225 224 226 226 210 200 213 238 245 233 232 232 233 245 245 244 243 229 222 220 222 227 231 235 236 235 234 238 249 254
20 23 348 344 34 318 308 7 38 21 320 340 28 182 284 273 309 345 256 233 252 273 292 325 343 355 355 357 359 360 4 2 359 360 356 355 355 356 359 354 349 348 341 349 9 353 352 357 353 21 34 20 36 74 87 88 103 140 187 185 175 186 199 201 208 222 225 223 224 223 226 226 226 236 237 223 194 167 158 164 185 207 240 252 236 229 226 227 233 238 240 240 239 242 246 252 257
9 46 307 311 3 335 323 357 32 14 332 335 23 212 292 279 309 336 294 230 240 253 304 338 350 358 357 357 357 359 1 359 359 2 359 356 355 355 359 357 353 349 340 349 23 11 4 7 16 43 56 51 34 35 64 73 76 86 143 189 175 185 201 205 204 211 218 219 220 218 222 240 256 255 225 211 182 144 141 163 207 240 260 271 262 246 234 231 236 240 243 246 248 247 244 246 256
338 19 359 291 323 335 334 305 6 10 354 327 6 237 263 279 301 323 300 227 234 262 327 345 357 358 357 353 351 356 358 355 355 357 358 358 355 355 358 357 357 355 346 348 36 41 24 20 45 49 56 65 47 28 44 62 66 65 79 98 135 180 202 211 208 211 222 227 224 222 226 243 264 260 220 206 204 205 234 258 265 269 265 262 263 259 244 237 240 242 246 249 246 243 241 244 255
279 337 341 317 321 306 321 315 354 3 352 335 5 337 299 300 306 326 316 217 229 297 337 350 359 357 354 349 347 352 355 353 352 352 355 357 356 358 359 357 0 3 356 352 23 60 51 46 57 49 50 63 54 39 42 52 57 59 68 79 88 113 146 189 204 215 228 233 228 228 228 226 237 241 223 215 223 244 259 265 269 271 269 263 259 255 250 247 248 248 250 252 251 251 249 248 251
232 258 258 303 316 292 289 292 354 1 349 356 14 329 308 313 313 332 334 206 216 306 337 350 353 354 350 345 344 349 352 350 349 347 348 354 355 359 3 0 2 7 7 2 9 39 49 50 54 50 57 63 59 56 55 53 54 57 63 71 84 91 94 104 149 199 223 228 223 224 225 217 215 219 218 220 234 252 260 265 265 261 257 256 253 251 250 252 254 254 255 256 257 257 255 252 253
209 194 230 297 307 305 302 273 5 12 360 302 347 321 310 314 305 328 338 189 196 241 328 344 344 349 346 340 342 344 346 347 345 343 345 351 353 359 5 3 3 8 14 12 9 16 28 41 46 41 48 56 58 61 61 60 59 58 60 61 67 77 85 93 109 134 179 201 202 205 207 201 202 207 214 228 245 255 261 268 267 261 256 252 251 251 251 252 255 255 254 255 259 263 267 267 255
167 163 265 333 311 298 309 269 348 15 19 270 329 335 321 321 315 334 18 175 199 266 324 340 336 341 340 336 342 341 342 342 339 339 347 355 355 0 5 5 6 8 14 17 14 16 22 32 38 34 35 38 47 54 55 58 59 57 60 61 60 68 75 79 92 104 110 124 150 178 187 188 198 212 226 242 254 258 264 272 272 271 269 265 263 260 256 254 252 251 251 254 262 269 279 269 200
95 41 40 340 311 293 307 298 341 359 39 276 322 332 315 309 318 351 73 166 262 319 322 332 330 335 335 334 342 345 344 342 339 342 350 359 1 4 7 8 10 12 16 18 17 19 22 26 31 32 30 29 37 45 47 51 54 54 59 64 64 69 74 73 74 75 71 66 74 101 126 167 203 222 233 256 276 281 286 285 286 287 285 287 289 283 267 250 240 240 244 248 255 265 268 170 175
54 37 61 322 327 341 310 329 342 340 104 260 307 306 300 317 334 0 33 4 313 310 309 313 319 325 328 333 342 345 346 345 345 348 352 357 2 5 8 9 10 14 21 22 21 21 22 25 28 29 30 28 30 35 38 40 43 46 49 57 61 68 77 80 78 79 78 70 67 75 84 87 85 85 81 65 50 37 28 21 12 358 356 356 349 338 309 247 225 214 219 225 222 223 201 171 172
339 245 93 322 317 305 259 291 327 331 343 328 341 354 314 339 349 330 334 335 304 296 297 300 306 311 317 329 339 341 345 349 349 351 352 353 356 2 7 9 10 12 16 20 23 22 22 26 28 29 31 31 31 33 36 34 33 36 37 41 47 51 65 76 82 86 88 81 76 74 75 78 75 71 69 64 58 54 52 55 52 48 48 48 49 52 67 103 171 163 159 173 182 188 187 176 167
335 267 192 247 264 243 277 307 327 10 19 350 26 38 305 325 342 306 313 330 309 304 302 298 296 295 305 323 333 335 339 346 348 350 352 351 352 358 2 7 11 14 15 15 18 19 21 25 28 30 32 34 35 35 36 35 31 33 33 32 35 36 45 61 65 66 67 65 65 67 67 68 68 65 64 64 64 64 65 64 56 50 50 57 72 85 95 105 120 127 122 127 149 148 141 161 155
345 302 166 155 284 293 320 333 355 58 340 323 43 82 269 319 328 293 311 325 311 318 320 316 306 287 297 319 328 329 332 338 343 347 353 353 355 358 358 2 9 14 16 15 15 17 19 22 25 26 27 31 36 36 35 33 32 34 33 34 41 44 50 61 62 59 61 58 55 58 59 61 61 58 60 62 61 60 60 59 57 54 56 63 71 74 80 87 93 92 92 91 96 103 96 125 143
313 267 86 352 309 305 325 48 47 94 262 330 14 85 183 297 290 279 316 329 321 333 335 336 337 307 301 318 325 329 329 333 340 344 351 357 1 5 1 360 5 11 13 12 14 18 20 21 22 22 22 25 31 34 33 31 32 34 35 39 49 56 60 64 64 62 62 61 60 62 62 62 63 61 61 61 59 59 58 57 60 64 66 68 69 70 73 74 74 71 69 66 65 71 72 78 98
265 232 45 303 292 292 120 96 54 299 47 356 325 16 78 275 278 299 348 357 330 333 322 330 344 336 319 324 327 331 328 330 337 341 348 357 4 10 11 7 6 8 9 9 12 15 16 18 19 18 18 19 24 28 29 29 29 30 31 32 38 49 55 58 59 59 61 61 60 64 66 66 68 67 66 66 65 64 63 65 67 68 72 74 75 76 77 79 80 80 81 80 79 79 80 82 85
286 304 48 350 16 65 88 90 76 24 50 344 289 349 40 285 288 322 8 16 319 321 308 312 338 344 332 330 333 332 328 328 331 334 342 354 2 10 15 14 10 9 9 8 11 12 12 14 15 15 16 17 17 18 21 25 27 26 26 27 30 37 44 47 48 48 53 51 47 56 62 62 65 67 68 70 71 70 69 71 74 77 82 85 86 86 89 92 93 93 94 90 89 88 87 82 79
314 345 54 43 32 39 54 57 73 59 22 280 262 317 51 306 291 285 331 314 277 288 309 313 330 345 339 334 337 336 331 327 326 328 334 342 350 2 11 15 14 12 10 10 10 11 12 14 13 12 12 14 13 13 14 17 21 23 23 26 28 33 38 40 36 36 44 42 37 43 48 50 55 57 62 66 69 72 72 74 76 80 83 87 92 95 95 94 89 86 83 81 78 75 72 64 58
347 3 18 31 9 11 24 357 31 60 336 273 248 295 53 242 281 284 291 288 268 258 289 301 310 337 346 337 335 337 333 328 324 325 331 335 338 344 354 4 10 11 10 10 10 10 11 12 14 14 11 9 7 8 10 10 12 16 19 23 24 28 33 32 26 26 33 33 29 32 36 39 41 43 49 51 61 70 72 75 76 76 80 83 84 85 83 78 73 68 62 56 54 50 50 43 35
9 3 13 52 18 7 23 344 2 38 282 258 267 348 350 222 258 280 284 286 294 301 301 298 300 320 343 342 337 334 332 329 324 322 327 333 335 336 339 344 352 359 3 6 8 9 10 9 12 14 12 10 5 2 3 3 5 6 9 14 17 21 23 21 16 16 21 21 19 22 26 28 27 31 36 33 50 67 63 66 71 72 78 79 73 67 64 62 56 49 42 37 35 34 31 24 17
352 344 19 67 51 27 8 322 335 319 282 272 327 353 296 289 279 244 264 289 299 328 351 339 319 320 332 338 336 332 332 332 327 322 323 330 334 335 336 336 338 340 344 350 356 1 5 6 8 10 12 12 7 3 358 356 358 357 359 2 4 7 9 8 7 6 8 7 7 12 13 12 13 15 14 14 29 46 42 44 47 45 49 55 56 51 46 47 39 28 25 20 16 16 14 9 5
310 279 78 78 90 79 9 292 260 293 298 301 322 4 223 303 278 239 306 317 300 319 359 354 339 332 332 331 331 333 334 335 331 323 320 325 329 332 333 335 336 334 333 333 334 341 350 357 1 4 8 10 9 5 0 355 353 350 350 350 349 351 351 353 354 352 352 353 356 359 355 357 359 356 354 354 360 10 5 1 4 5 9 15 17 17 15 15 13 9 7 5 5 6 5 0 358
292 123 71 57 149 135 121 223 212 239 319 300 307 268 241 271 256 294 338 353 7 352 344 350 344 330 324 326 330 334 334 337 336 328 322 321 321 323 327 331 333 334 333 331 325 322 324 332 343 351 358 4 6 5 3 357 353 350 348 345 343 343 343 342 340 337 336 338 340 342 341 343 344 341 341 341 338 341 339 336 341 341 344 346 346 347 349 349 350 351 352 353 354 356 356 354 353
325 53 50 280 169 128 104 296 296 54 40 280 296 302 291 319 341 319 352 14 11 356 357 359 345 325 318 326 333 337 337 342 344 338 331 326 320 316 319 323 326 328 330 331 328 320 313 311 315 323 334 346 354 358 360 358 354 353 351 349 346 345 345 344 340 333 330 328 326 327 328 327 327 328 325 326 326 324 322 323 323 323 326 327 328 330 331 333 336 338 341 342 344 347 349 350 351
28 49 189 199 69 86 94 3 345 27 4 281 318 306 298 342 335 319 359 10 345 343 358 351 339 331 328 331 333 336 339 344 345 342 337 334 330 322 318 317 319 323 324 325 327 322 314 309 304 304 308 315 326 335 343 346 348 350 351 351 350 348 349 348 346 342 335 331 324 321 321 319 319 319 317 316 314 310 308 309 309 310 312 313 316 319 321 325 328 331 334 337 339 344 346 349 351
69 118 174 113 60 14 23 49 7 6 320 294 306 287 277 250 232 314 344 320 290 308 336 341 342 348 341 330 326 325 334 341 341 341 338 336 337 331 325 322 320 321 321 322 322 317 314 314 308 302 299 296 299 306 316 323 328 333 336 342 343 343 346 347 347 346 343 339 333 326 322 318 314 313 312 310 305 302 300 298 299 302 305 308 310 313 315 318 321 325 330 334 339 344 347 351 354
57 79 359 38 112 147 329 15 142 129 289 303 314 302 282 237 210 258 278 246 239 270 320 337 345 351 343 335 330 322 326 336 337 338 338 338 340 338 335 335 333 331 327 325 321 314 313 313 309 307 302 296 293 293 295 300 305 309 311 317 322 325 330 335 338 342 345 345 340 335 329 321 314 308 303 301 298 296 293 291 292 292 295 298 300 304 306 307 312 316 321 327 331 337 341 347 351
15 32 22 16 27 52 20 334 143 133 162 278 319 304 283 257 219 230 245 236 220 227 328 341 336 340 340 341 340 325 321 332 333 333 336 338 342 345 348 348 347 347 343 338 332 324 318 311 306 307 305 299 295 292 291 290 290 291 292 295 299 301 304 308 314 322 331 337 335 333 330 324 320 310 299 294 289 286 286 286 287 288 290 293 295 297 299 301 305 308 311 315 318 325 332 338 344
166 132 121 117 37 60 65 329 310 62 159 180 196 282 278 270 233 214 225 239 235 241 323 333 328 332 334 341 344 330 321 329 329 328 330 332 335 342 347 349 351 353 351 348 343 337 331 321 312 305 300 298 297 294 292 290 286 283 282 284 285 286 288 289 293 299 305 314 317 318 318 318 319 313 304 298 288 283 284 285 288 290 290 291 290 290 292 294 297 300 301 301 303 311 319 325 333